DIRECTV 12

Last updated on Sun Apr 12 2026 00:02:52 GMT+0000 (Coordinated Universal Time)

1 36131U 09075A 26101.35778301 -.00000102 00000+0 00000+0 0 9991 2 36131 0.0086 79.3813 0000518 328.5066 177.7681 1.00271816 45883
UTC large
Height (km)
Speed (km/s)
/
Latitude / Longitude
Inclination (degrees)
Orbital Period (minutes)
Azimuth
Elevation
Range (km)
Doppler Factor

Next 0 passes for location: London (51.5072 / 0.1276)

Sorry there are no passes over London.
DIRECTV 12